Weather History for Cherry Point, NC

Change the Weather History Date:

Thursday, October 31, 2013

  Actual Average Record
Temperature  
Mean Temperature 62 °F -  
Max Temperature 73 °F 68 °F 84 °F (2004)
Min Temperature 52 °F 46 °F 30 °F (2008)
Degree Days  
Heating Degree Days 2    
Growing Degree Days 12 (Base 50)    
Moisture  
Dew Point 58 °F    
Average Humidity 83    
Maximum Humidity 93    
Minimum Humidity 71    
Precipitation  
Precipitation 0.00 in - - ()
Sea Level Pressure  
Sea Level Pressure 30.15 in    
Wind  
Wind Speed 4 mph (South)    
Max Wind Speed 16 mph    
Max Gust Speed 26 mph    
Visibility 10 miles    
Events Fog    
Averages and records for this station are not official NWS values.
T = Trace of Precipitation, MM = Missing Value Source: NWS Daily Summary

Daily Weather History Graph

Daily Weather History Graph

Search for Another Location

Airport:

Trip Planner

Search our weather history database for the weather conditions in past years. The results will help you decide how hot, cold, wet, or windy it might be!

Date:

Astronomy

Oct. 31, 2013 Rise Set
Actual Time 7:27 AM EDT 6:14 PM EDT
Civil Twilight 7:01 AM EDT 6:40 PM EDT
Nautical Twilight 6:31 AM EDT 7:10 PM EDT
Astronomical Twilight 6:02 AM EDT 7:39 PM EDT
Moon 4:21 AM EDT (10/31) 4:25 PM EDT (10/31)
Length of Visible Light 11h 38m
Length of Day
10h 46m
Waning Crescent, 10% of the Moon is Illuminated
Oct 31
Waning Crescent
Nov 3
New
Nov 10
First Quarter
Nov 17
Full
Nov 25
Last Quarter

Hourly Weather History & Observations

Time (EDT) Temp. Dew Point Humidity Pressure Visibility Wind Dir Wind Speed Gust Speed Precip Events Conditions
12:54 AM 55.0 °F 52.0 °F 89% 30.22 in 10.0 mi ESE 3.5 mph - N/A   Clear
1:54 AM 55.0 °F 53.1 °F 93% 30.22 in 10.0 mi Calm Calm - N/A   Clear
2:26 AM 55.9 °F 52.0 °F 87% 30.21 in 10.0 mi Calm Calm - N/A   Scattered Clouds
2:54 AM 55.9 °F 53.1 °F 90% 30.20 in 10.0 mi Calm Calm - N/A   Partly Cloudy
3:54 AM 53.1 °F 50.0 °F 89% 30.20 in 10.0 mi Calm Calm - N/A   Clear
4:18 AM 54.0 °F 51.1 °F 90% 30.21 in 10.0 mi SE 3.5 mph - N/A   Scattered Clouds
4:30 AM 54.0 °F 51.1 °F 90% 30.21 in 9.0 mi Calm Calm - N/A   Mostly Cloudy
4:54 AM 54.0 °F 52.0 °F 93% 30.21 in 6.0 mi Calm Calm - N/A   Overcast
5:12 AM 54.0 °F 52.0 °F 93% 30.21 in 7.0 mi Calm Calm - N/A   Mostly Cloudy
5:20 AM 53.1 °F 50.0 °F 89% 30.22 in 10.0 mi Calm Calm - N/A   Scattered Clouds
5:54 AM 52.0 °F 48.9 °F 89% 30.21 in 10.0 mi Calm Calm - N/A   Clear
6:54 AM 53.1 °F 48.9 °F 86% 30.20 in 10.0 mi Calm Calm - N/A   Clear
7:27 AM 52.0 °F 48.9 °F 89% 30.20 in 10.0 mi NNE 3.5 mph - N/A   Scattered Clouds
7:54 AM 53.1 °F 48.9 °F 86% 30.19 in 10.0 mi Calm Calm - N/A Fog Shallow Fog
8:54 AM 61.0 °F 57.0 °F 87% 30.21 in 10.0 mi Calm Calm - N/A   Partly Cloudy
9:54 AM 66.9 °F 60.1 °F 79% 30.20 in 10.0 mi ESE 3.5 mph - N/A   Scattered Clouds
10:54 AM 70.0 °F 63.0 °F 78% 30.18 in 10.0 mi SSE 12.7 mph - N/A   Mostly Cloudy
11:35 AM 71.1 °F 64.0 °F 78% 30.19 in 10.0 mi SSE 12.7 mph - N/A   Overcast
11:54 AM 70.0 °F 64.9 °F 84% 30.18 in 8.0 mi SSE 8.1 mph - N/A   Overcast
12:29 PM 71.1 °F 66.0 °F 84% 30.17 in 10.0 mi South 10.4 mph 17.3 mph N/A   Overcast
12:54 PM 73.0 °F 64.9 °F 76% 30.14 in 10.0 mi South 15.0 mph 20.7 mph N/A   Overcast
1:06 PM 73.0 °F 64.9 °F 76% 30.14 in 10.0 mi South 16.1 mph 26.5 mph N/A   Overcast
1:26 PM 73.0 °F 64.0 °F 73% 30.13 in 10.0 mi South 16.1 mph 21.9 mph N/A   Overcast
1:54 PM 72.0 °F 64.0 °F 76% 30.11 in 10.0 mi South 11.5 mph 19.6 mph N/A   Overcast
2:54 PM 73.0 °F 64.0 °F 73% 30.09 in 10.0 mi South 13.8 mph 21.9 mph N/A   Mostly Cloudy
3:54 PM 72.0 °F 64.0 °F 76% 30.09 in 10.0 mi South 10.4 mph - N/A   Overcast
4:54 PM 73.0 °F 63.0 °F 71% 30.08 in 10.0 mi SSW 10.4 mph - N/A   Overcast
5:54 PM 72.0 °F 62.1 °F 71% 30.07 in 10.0 mi SSW 6.9 mph - N/A   Overcast
6:54 PM 70.0 °F 62.1 °F 76% 30.07 in 10.0 mi South 4.6 mph - N/A   Partly Cloudy
7:54 PM 69.1 °F 63.0 °F 81% 30.06 in 10.0 mi South 4.6 mph - N/A   Clear
8:54 PM 69.1 °F 64.0 °F 84% 30.05 in 10.0 mi South 4.6 mph - N/A   Clear
9:54 PM 70.0 °F 64.9 °F 84% 30.04 in 10.0 mi South 5.8 mph - N/A   Mostly Cloudy
10:54 PM 71.1 °F 63.0 °F 75% 30.03 in 10.0 mi South 5.8 mph - N/A   Mostly Cloudy
11:54 PM 72.0 °F 63.0 °F 73% 30.01 in 10.0 mi South 6.9 mph - N/A   Mostly Cloudy